[[{"header":{"parameterUnit":"m.s-1","parameterCategory":1,"la1":30.2991,"la2":30.254,"lo1":-89.0895,"lo2":-89.0444,"dy":0.0017,"dx":0.0017,"nx":28,"ny":28,"refTime":"2025-12-28T09:00:00:Z","depth":0,"parameterNumber":2,"parameterNumberName":"U-component_of_WINDS"},"data":[0,0,0,0,0,0,0,0,0,0,0,0,0,0,0,0,0,0,0,0,0,0,0,0,0,0,0,0,0,0,0,0,0,0,0,0,0,0,0,0,0,0,0,0,0,0,0,0,0,0,0,0,0,0,0,0,0,0,2.2255,2.2255,0,2.227,2.227,2.227,2.2252,2.2252,2.2251,2.225,2.2265,2.2266,2.2267,0,0,0,0,0,0,0,0,0,0,0,0,0,2.2211,2.2212,2.2255,2.2255,2.2255,2.227,2.227,2.227,2.2253,2.2252,2.2251,2.225,2.2265,2.2266,2.2268,0,0,0,0,0,0,0,0,0,0,0,0,0,2.2228,2.2212,2.2255,2.2248,2.2247,2.227,2.227,2.227,2.2253,2.2252,2.2251,2.225,2.2265,2.2266,2.2268,2.2297,0,0,2.2272,2.2273,0,0,0,0,0,0,0,0,2.2227,2.223,2.2249,2.2248,2.2248,2.2258,2.226,2.2279,2.2253,2.2251,2.225,2.2249,2.2264,2.2265,2.227,2.2298,2.2298,2.2272,2.2273,2.2274,2.2274,0,0,0,0,0,0,0,2.2226,2.2229,2.2261,2.2249,2.2249,2.2244,2.2246,2.2264,2.2263,2.2251,2.225,2.2252,2.2263,2.2269,2.2271,2.2299,2.2272,2.2274,2.2275,2.2275,2.2352,2.2353,0,0,0,0,0,0,2.2226,2.2228,2.226,2.2261,2.2235,2.2246,2.2248,2.2256,2.2262,2.2262,2.2252,2.2251,2.2267,2.2269,2.2271,2.2306,2.2274,2.2275,2.2276,2.2351,2.2353,2.2354,0,0,0,0,0,0,2.2225,2.2229,2.2259,2.2244,2.2248,2.2248,2.2257,2.2257,2.2262,2.2264,2.2263,2.2258,2.2266,2.2269,2.2291,2.2307,2.2276,2.2278,2.235,2.2352,2.2353,2.2377,0,0,0,0,0,0,2.2224,2.2229,2.2239,2.2245,2.2249,2.2279,2.2258,2.2258,2.2265,2.2263,2.2269,2.2269,2.2266,2.2289,2.2293,2.2308,2.2279,2.2348,2.2351,2.2353,2.2375,2.2379,2.2383,0,0,0,0,0,2.2222,2.2245,2.224,2.2244,2.2262,2.228,2.2282,2.2278,2.2266,2.2277,2.2279,2.2269,2.2305,2.2291,2.2295,2.2312,2.2347,2.235,2.2353,2.2373,2.2379,2.2383,0,0,0,0,0,0,2.224,2.2245,2.224,2.2265,2.2272,2.2277,2.229,2.2284,2.2294,2.2292,2.2286,2.2287,2.2311,2.2314,2.2299,2.2341,2.2324,2.2328,2.2338,2.2344,2.2348,2.2346,2.228,0,0,0,0,0,2.2248,2.2261,2.2265,2.2287,2.2291,2.229,2.2298,2.2294,2.2301,2.2304,2.2307,2.2314,2.2327,2.2336,2.2348,2.2376,2.2377,2.2389,2.2393,2.2397,2.24,2.2416,2.2421,2.2362,2.2362,2.2362,0,0,2.2262,2.2266,2.2275,2.2291,2.2296,2.2311,2.2293,2.2309,2.232,2.2306,2.2328,2.233,2.2338,2.2364,2.2375,2.2367,2.2416,2.24,2.2403,2.2404,2.2419,2.2424,2.2429,2.2364,2.2364,2.2363,0,0,2.2296,2.2301,2.232,2.2326,2.2334,2.2334,2.2339,2.2345,2.2346,2.2368,2.2358,2.2372,2.2394,2.24,2.2406,2.2446,2.2437,2.245,2.2471,2.2487,2.2491,2.2496,2.251,2.2515,2.2453,2.2453,2.2453,0,2.2312,2.2334,2.233,2.2348,2.2355,2.2345,2.2365,2.2371,2.2382,2.2388,2.2379,2.2407,2.2412,2.2439,2.2449,2.2454,2.246,2.2448,2.2491,2.2495,2.2499,2.2512,2.2518,2.2454,2.2454,2.2454,2.2454,0,2.2355,2.237,2.2385,2.2397,2.2407,2.2425,2.2424,2.2434,2.2431,2.2432,2.2455,2.246,2.2473,2.248,2.2476,2.2507,2.2502,2.2492,2.2475,2.2506,2.2519,2.2524,2.2456,2.2456,2.2455,2.2455,0,0,2.2398,2.241,2.2416,2.2422,2.2432,2.2443,2.2462,2.2476,2.2485,2.2494,2.251,2.253,2.2522,2.2529,2.2526,2.254,2.2571,2.2528,2.2528,2.2536,2.2607,2.2614,2.262,2.2566,2.2567,2.2568,2.2606,0,2.2432,2.2465,2.2463,2.2493,2.2508,2.25,2.2516,2.2524,2.2526,2.2539,2.2542,2.2556,2.2544,2.2548,2.2562,2.2564,2.2585,2.2562,2.2581,2.2581,2.2578,2.2626,2.2633,2.2669,2.2611,2.2612,2.2612,0,2.2476,2.2487,2.252,2.2529,2.2535,2.2549,2.2563,2.2576,2.2585,2.2586,2.2595,2.259,2.261,2.2593,2.262,2.2604,2.2612,2.2615,2.2616,2.2617,2.2598,2.2628,2.268,2.2685,2.262,2.2619,2.2619,0,2.2505,2.2528,2.2551,2.2557,2.2568,2.2578,2.2584,2.2592,2.2601,2.2613,2.2619,2.2633,2.264,2.2652,2.2651,2.2639,2.2679,2.2662,2.268,2.268,2.2688,2.2687,2.2741,2.2694,2.2694,2.2694,2.2694,0,2.2542,2.2562,2.2564,2.2578,2.2601,2.2599,2.2622,2.2626,2.2634,2.2649,2.2643,2.2657,2.2655,2.267,2.267,2.2693,2.2696,2.2697,2.2697,2.2698,2.2697,2.2702,2.2699,2.2695,2.2695,2.2695,2.2695,0,2.2578,2.258,2.2604,2.2613,2.2616,2.2632,2.264,2.2654,2.2656,2.2675,2.268,2.2683,2.27,2.2701,2.2721,2.2721,2.2749,2.2746,2.2745,2.2745,2.2763,2.2761,2.2821,2.2829,2.2777,2.2778,2.2778,0,2.2601,2.2616,2.2628,2.2638,2.2644,2.266,2.2669,2.2669,2.2679,2.2693,2.2705,2.2721,2.2734,2.2762,2.2766,2.2781,2.2779,2.2799,2.2781,2.2781,2.2779,2.2778,2.2779,2.2802,2.2802,2.2803,2.2803,0,2.2643,2.2644,2.2658,2.2673,2.2685,2.2697,2.2708,2.2716,2.2717,2.2729,2.2747,2.2757,2.2778,2.2795,2.281,2.2815,2.281,2.2809,2.2814,2.2815,2.2814,2.2815,2.2755,2.2808,2.2807,2.2807,2.2807,2.2806,2.2673,2.2687,2.2697,2.2714,2.2722,2.2733,2.2747,2.2752,2.2767,2.2783,2.2783,2.2802,2.2813,2.2833,2.284,2.2856,2.2849,2.2856,2.2858,2.286,2.2861,2.2812,2.2859,2.2859,2.2858,2.2858,2.2858,0,2.2714,2.2721,2.2737,2.2753,2.2766,2.2761,2.2773,2.2785,2.2802,2.2813,2.2827,2.2848,2.2864,2.2871,2.2887,2.2899,2.2897,2.2903,2.2902,2.2903,2.2867,2.2861,2.2905,2.2905,2.2905,2.2905,2.2904,2.2904,2.2737,2.2761,2.2763,2.2791,2.2798,2.2818,2.2825,2.2836,2.2845,2.2868,2.2883,2.2887,2.2897,2.2914,2.2929,2.2931,2.2937,2.2945,2.2945,2.2911,2.2906,2.2901,2.2896,2.2946,2.2946,2.2981,2.2981,2.2981]},{"header":{"parameterUnit":"m.s-1","parameterCategory":1,"la1":30.2991,"la2":30.254,"lo1":-89.0895,"lo2":-89.0444,"dy":0.0017,"dx":0.0017,"nx":28,"ny":28,"refTime":"2025-12-28T09:00:00:Z","depth":0,"parameterNumber":3,"parameterNumberName":"V-component_of_WINDS"},"data":[0,0,0,0,0,0,0,0,0,0,0,0,0,0,0,0,0,0,0,0,0,0,0,0,0,0,0,0,0,0,0,0,0,0,0,0,0,0,0,0,0,0,0,0,0,0,0,0,0,0,0,0,0,0,0,0,0,0,-7.6491,-7.6493,0,-7.6633,-7.6635,-7.6637,-7.659,-7.6587,-7.6584,-7.6581,-7.6721,-7.6727,-7.6734,0,0,0,0,0,0,0,0,0,0,0,0,0,-7.6175,-7.6181,-7.6491,-7.6493,-7.6494,-7.6633,-7.6635,-7.6637,-7.6591,-7.6587,-7.6583,-7.658,-7.6719,-7.6727,-7.6734,0,0,0,0,0,0,0,0,0,0,0,0,0,-7.6314,-7.6183,-7.649,-7.6488,-7.6489,-7.6633,-7.6635,-7.6637,-7.6591,-7.6587,-7.6582,-7.6578,-7.6716,-7.6726,-7.6735,-7.6888,0,0,-7.6766,-7.677,0,0,0,0,0,0,0,0,-7.6306,-7.6325,-7.6487,-7.6489,-7.649,-7.6589,-7.6575,-7.6721,-7.6593,-7.6552,-7.6581,-7.6576,-7.668,-7.6693,-7.673,-7.6894,-7.69,-7.6766,-7.6772,-7.6777,-7.6779,0,0,0,0,0,0,0,-7.6296,-7.6319,-7.6547,-7.6489,-7.6491,-7.6479,-7.6493,-7.6602,-7.664,-7.6556,-7.6553,-7.657,-7.668,-7.672,-7.6732,-7.6902,-7.6766,-7.6775,-7.6781,-7.6785,-7.7201,-7.7206,0,0,0,0,0,0,-7.6286,-7.6311,-7.6542,-7.6551,-7.6385,-7.6488,-7.6504,-7.6562,-7.6639,-7.6646,-7.6574,-7.6568,-7.6706,-7.6721,-7.6737,-7.6922,-7.6777,-7.6786,-7.6791,-7.7196,-7.7202,-7.7208,0,0,0,0,0,0,-7.628,-7.6307,-7.6537,-7.6431,-7.6459,-7.6498,-7.6563,-7.6567,-7.6607,-7.6653,-7.6659,-7.6608,-7.6703,-7.6723,-7.6852,-7.6926,-7.679,-7.6799,-7.719,-7.7198,-7.7205,-7.7292,0,0,0,0,0,0,-7.6271,-7.6305,-7.6365,-7.6432,-7.6465,-7.665,-7.6568,-7.6573,-7.6625,-7.6618,-7.6686,-7.6693,-7.6701,-7.6837,-7.6861,-7.6937,-7.6807,-7.7183,-7.7193,-7.7203,-7.7283,-7.7302,-7.7318,0,0,0,0,0,-7.626,-7.6382,-7.6368,-7.6396,-7.654,-7.6655,-7.6673,-7.6681,-7.6631,-7.669,-7.672,-7.6691,-7.6914,-7.6851,-7.6878,-7.6958,-7.7179,-7.7191,-7.7202,-7.7275,-7.7298,-7.7318,0,0,0,0,0,0,-7.6319,-7.639,-7.6376,-7.6524,-7.6584,-7.6647,-7.6722,-7.6705,-7.6779,-7.6769,-7.6773,-7.6789,-7.6921,-7.6952,-7.688,-7.711,-7.7039,-7.7056,-7.7085,-7.7108,-7.7125,-7.7115,-7.6815,0,0,0,0,0,-7.635,-7.6439,-7.6495,-7.662,-7.6652,-7.6682,-7.6732,-7.6733,-7.6795,-7.6819,-7.6858,-7.6918,-7.7001,-7.7056,-7.7135,-7.7287,-7.7301,-7.7355,-7.7373,-7.7387,-7.7402,-7.7486,-7.7511,-7.7246,-7.7246,-7.7246,0,0,-7.6413,-7.6463,-7.6518,-7.6634,-7.668,-7.6772,-7.6703,-7.6802,-7.6869,-7.6833,-7.6958,-7.6989,-7.7055,-7.7197,-7.7261,-7.7226,-7.7479,-7.7402,-7.7413,-7.7421,-7.7501,-7.7526,-7.7548,-7.7254,-7.7252,-7.7251,0,0,-7.6575,-7.6622,-7.6732,-7.6782,-7.6854,-7.6874,-7.69,-7.6967,-7.6987,-7.7113,-7.7088,-7.7167,-7.7311,-7.736,-7.7404,-7.7587,-7.7564,-7.7613,-7.7705,-7.7787,-7.7808,-7.7827,-7.7893,-7.7917,-7.7628,-7.7628,-7.7628,0,-7.6644,-7.6783,-7.679,-7.6893,-7.6944,-7.6919,-7.703,-7.7076,-7.717,-7.7206,-7.7167,-7.7348,-7.7391,-7.7544,-7.7589,-7.7625,-7.7655,-7.7605,-7.7805,-7.7823,-7.7841,-7.7904,-7.7929,-7.7633,-7.7633,-7.7632,-7.7632,0,-7.6865,-7.6961,-7.7041,-7.7136,-7.7196,-7.7302,-7.7325,-7.7385,-7.7381,-7.7405,-7.7533,-7.7584,-7.7674,-7.771,-7.7706,-7.7864,-7.784,-7.7803,-7.7732,-7.7872,-7.7931,-7.7955,-7.7641,-7.7639,-7.7638,-7.7636,0,0,-7.7067,-7.7167,-7.7196,-7.724,-7.7319,-7.7393,-7.7498,-7.7588,-7.764,-7.7706,-7.7794,-7.7917,-7.7884,-7.7934,-7.7935,-7.8007,-7.8151,-7.7961,-7.7962,-7.7995,-7.8328,-7.8356,-7.8384,-7.8135,-7.814,-7.8144,-7.8323,0,-7.7237,-7.7424,-7.7435,-7.7604,-7.7693,-7.7671,-7.7763,-7.7821,-7.7846,-7.7924,-7.7951,-7.8039,-7.7988,-7.8018,-7.8088,-7.8118,-7.8218,-7.8105,-7.8216,-7.822,-7.8201,-7.8415,-7.8445,-7.8612,-7.8346,-7.835,-7.8353,0,-7.746,-7.7536,-7.7715,-7.7784,-7.7822,-7.7904,-7.7989,-7.8064,-7.8129,-7.8143,-7.82,-7.8191,-7.8298,-7.8224,-7.837,-7.8294,-7.834,-7.8362,-7.8368,-7.8379,-7.8295,-7.8433,-7.8665,-7.869,-7.8389,-7.8387,-7.8384,0,-7.7591,-7.7738,-7.7865,-7.7902,-7.7985,-7.8044,-7.8081,-7.8142,-7.8196,-7.827,-7.8305,-7.8389,-7.8435,-7.85,-7.8514,-7.8458,-7.8662,-7.8588,-7.8675,-7.8675,-7.8719,-7.8716,-7.8962,-7.8748,-7.8747,-7.8747,-7.8746,0,-7.778,-7.789,-7.7925,-7.8003,-7.8126,-7.8138,-7.8259,-7.8291,-7.8346,-7.8429,-7.8414,-7.8492,-7.8506,-7.8587,-7.8598,-7.8719,-7.8739,-7.8752,-7.8754,-7.8754,-7.8753,-7.8784,-7.8773,-7.8753,-7.8752,-7.8751,-7.8749,0,-7.7947,-7.7975,-7.8112,-7.8181,-7.82,-7.8288,-7.8346,-7.842,-7.8444,-7.855,-7.8575,-7.8612,-7.8707,-7.8728,-7.8838,-7.8846,-7.899,-7.898,-7.8969,-7.8968,-7.9055,-7.9046,-7.9331,-7.9369,-7.9128,-7.9131,-7.9132,0,-7.8066,-7.8151,-7.823,-7.8286,-7.8327,-7.8416,-7.8473,-7.8487,-7.8546,-7.8629,-7.8693,-7.8786,-7.8862,-7.9013,-7.9049,-7.9134,-7.9127,-7.922,-7.9139,-7.9137,-7.9129,-7.9124,-7.9133,-7.9236,-7.9238,-7.924,-7.9242,0,-7.8275,-7.8285,-7.8368,-7.8458,-7.8526,-7.8596,-7.8662,-7.8708,-7.8732,-7.8799,-7.8897,-7.8956,-7.9071,-7.9164,-7.925,-7.9285,-7.9268,-7.9268,-7.9293,-7.9294,-7.9284,-7.9292,-7.9012,-7.9261,-7.9259,-7.9258,-7.9257,-7.9256,-7.8423,-7.8498,-7.8566,-7.866,-7.8712,-7.8775,-7.8849,-7.8884,-7.8967,-7.9063,-7.9066,-7.9173,-7.9237,-7.9351,-7.9393,-7.9475,-7.9446,-7.9482,-7.9491,-7.95,-7.9508,-7.9271,-7.9491,-7.949,-7.949,-7.9489,-7.9489,0,-7.8631,-7.8675,-7.8761,-7.8856,-7.893,-7.891,-7.8983,-7.9045,-7.9141,-7.9203,-7.9278,-7.9391,-7.9482,-7.9526,-7.9615,-7.9673,-7.9667,-7.9696,-7.9692,-7.97,-7.9529,-7.9499,-7.9699,-7.9699,-7.9699,-7.9699,-7.9699,-7.9699,-7.8749,-7.8876,-7.8894,-7.9047,-7.9089,-7.9196,-7.924,-7.9298,-7.9348,-7.9476,-7.9552,-7.9581,-7.9636,-7.9729,-7.9811,-7.9822,-7.9855,-7.9888,-7.9895,-7.9734,-7.9712,-7.9692,-7.9664,-7.9895,-7.9895,-8.0059,-8.0061,-8.0062]}]]